Regional Weather Roundup
Issued by NWS Newport/Morehead, NC

Current Version | Previous Version | Graphics & Text | Print | Product List | Glossary Off
Versions: 1 2 3 4 5 6 7 8 9 10 11 12 13 14 15 16 17 18 19 20 21 22 23 24 25 26 27 28 29 30 31 32 33 34 35 36 37 38 39 40 41 42 43 44 45 46 47 48 49 50

027
ASUS42 KMHX 260125
RWRMHX
WEATHER ROUNDUP FOR EASTERN NORTH CAROLINA
NATIONAL WEATHER SERVICE NEWPORT/MOREHEAD CITY NC
900 PM EDT WED APR 25 2018

NOTE: "FAIR" INDICATES FEW OR NO CLOUDS BELOW 12,000 FEET
WITH NO SIGNIFICANT WEATHER AND/OR OBSTRUCTIONS TO VISIBILITY

NCZ015>017-031-032-045>047-102-103-260200-
NORTH COAST

CITY           SKY/WX    TMP DP  RH WIND       PRES   REMARKS
EDENTON        FAIR      65  62  88 W3        29.76R
ELIZABETH CITY MOCLDY    64  62  93 NW6       29.74R
KITTY HAWK     MOCLDY    61  60  99 CALM      29.74R
MANTEO         LGT RAIN  62  61  96 SW8       29.76R

$$

NCZ045>047-081-094-103-104-260200-
CENTRAL COAST

CITY           SKY/WX    TMP DP  RH WIND       PRES   REMARKS
FRISCO         MOCLDY    67  62  84 W12G17    29.74R

$$

NCZ095-097-098-100-101-260200-
SOUTHERN COAST

CITY           SKY/WX    TMP DP  RH WIND       PRES   REMARKS
BEAUFORT       FAIR      65  58  78 W9        29.76R
CEDAR ISLAND   NOT AVBL
JACKSONVILLE   FAIR      64  57  78 W5        29.78R
PINEY ISLAND   NOT AVBL
WILMINGTON     FAIR      67  55  65 W3        29.80R


$$

NCZ011>013-027>030-043-044-078>080-089-090>093-098-260200-
COASTAL PLAIN

CITY           SKY/WX    TMP DP  RH WIND       PRES   REMARKS
AHOSKIE        FAIR      60  60 100 CALM      29.77R
CLINTON        FAIR      61  60  96 CALM      29.80R
ELIZABETHTOWN  FAIR      64  58  81 MISG      29.81R
GOLDSBORO      FAIR      63  57  82 W6        29.77R
GREENVILLE     FAIR      63  57  82 CALM      29.80S
HAVELOCK       CLEAR     66  58  75 W8        29.78R
KENANSVILLE    FAIR      59  57  94 CALM      29.79R
KINSTON        FAIR      61  59  94 CALM      29.79R
NEW BERN       FAIR      64  57  78 W3        29.77R
RICHLANDS      FAIR      62  57  83 W3        29.79R
ROCKY MOUNT    FAIR      60  57  89 CALM      29.78R
WASHINGTON     FAIR      63  58  82 CALM      29.77R
WHITEVILLE     FAIR      64  58  79 CALM      29.80R

$$

AMZ130-135-150-152-154-156-158-170-250-252-270-ANZ085-086-088-633-658-670-260200-
MARINE OBSERVATIONS

STATION/POSITION TIME  TEMP    WIND        PRES    WAVE   SWELL
                       AIR SEA DIR/SP/G            HT/PER HT/PER
                 (UTC) (F)     (DEG/KT/KT) (MB)    (FT/S) (FT/S)
CHESAPEAKE LIGHT NOT AVBL
64 E VA BEACH    0050   54 51  280/  8/ 10 1006.0    8/10   8/10
DUCK             0100   63 52  270/  4/  5 1006.4
2 E DUCK         0100      53                N/A     5/11   3/11
OREGON INLET     0100   62 62  200/  3/  4 1007.0
13E OREGON INLT  0048      54                N/A     6/ 9   7/ 9
HATTERAS CG      0100   65 67  240/  9/ 13 1007.3
DIAMOND BUOY     0110   68 70  240/ 19/ 25 1007.8
CAPE LOOKOUT     0100          240/  9/ 12 1008.4
BEAUFORT LAB     0100   66 64  290/  4/  9 1008.1
30 SE NEW RVR IN 0108   66 66  240/ 12/ 16 1006.6
30 SE NEW RVR IN 0100      67                N/A     6/ 9   2/11
27 SE WRIGHTSVLE 0108   65 66  240/ 14/ 19 1009.2
5 SE WRIGHTSVLE  0108   67 63  290/  4/ 10 1007.9
225 S CAPE HAT   0110   73 73  220/ 14/ 17 1010.4
41 SE CHARLESTON 0100      69  230/ 16/ 19 1010.2

$$




USA.gov is the U.S. government's official web portal to all federal, state and local government web resources and services.